Home > Weather > Norderstedt > Past weeks

Flag for Germany Past Weather in Norderstedt, Schleswig-Holstein, Germany — Yesterday and Last 2 Weeks

Now
57 °F

Partly cloudy.


Feels Like: 55 °F
Forecast: 55 / 68 °F
Wind: 9 mph from Southeast

Location: Hamburg-Fuhlsbuettel

Current Time: Jun 29, 2016 at 5:59:15 AM

Latest Report: Jun 29, 2016 at 5:20 AM


Visibility: N/A

Pressure: 29.80 "Hg

Humidity: 88%

Dew Point: 54 °F

Location of NorderstedtLocation

Past Weather in Norderstedt — Graph

°F

Norderstedt Temperature Yesterday

Maximum temperature yesterday: 68 °F (at 4:50 PM)
Minimum temperature yesterday: 55 °F (at 4:20 AM)
Average temperature yesterday: 61 °F

High & Low Weather Summary for the Past Weeks

 TemperatureHumidityPressure
High90 °F (Jun 23, 5:50 PM)100% (Jun 14, 4:20 AM)30.21 "Hg (Jun 14, 4:20 AM)
Low46 °F (Jun 20, 1:20 AM)40% (Jun 23, 3:50 PM)29.45 "Hg (Jun 14, 12:20 PM)
Average63 °F80%29.90 "Hg
* Reported Jun 14 4:20 AM — Jun 29 4:20 AM, Norderstedt, Weather by CustomWeather, © 2016

Note: Actual official high and low records may vary slightly from our data, if they occured in-between our weather recording intervals... More about our weather records

Advertising

Norderstedt Weather History for the Previous 24 Hours

Scroll right to see more
 ConditionsComfort  
Time TempWeatherWind HumidityBarometerVisibility
4:20 AM
Wed, Jun 29
57 °FLight rain. Passing clouds.13 mph82%29.80 "HgN/A
3:50 AM57 °FLight rain. Partly cloudy.12 mph82%29.83 "HgN/A
3:20 AM59 °FPartly cloudy.14 mph72%29.83 "HgN/A
2:50 AM59 °FLight rain. Passing clouds.13 mph72%29.83 "HgN/A
2:20 AM61 °FLight rain. Clear.12 mph63%29.86 "HgN/A
1:50 AM61 °FClear.10 mph63%29.86 "Hg10 mi
1:20 AM61 °FClear.9 mph63%29.89 "Hg10 mi
12:50 AM61 °FClear.8 mph63%29.89 "Hg10 mi
12:20 AM61 °FClear.8 mph63%29.92 "Hg10 mi
11:50 PM
Tue, Jun 28
61 °FClear.7 mph63%29.92 "Hg10 mi
11:20 PM61 °FClear.7 mph63%29.92 "Hg10 mi
10:50 PM63 °FSunny.7 mph59%29.95 "Hg10 mi
10:20 PM63 °FSunny.6 mph56%29.95 "Hg10 mi
9:50 PM63 °FSunny.8 mph56%29.95 "Hg10 mi
9:20 PM64 °FPassing clouds.6 mph52%29.95 "HgN/A
8:50 PM64 °FSunny.8 mph52%29.95 "Hg10 mi
8:20 PM66 °FPassing clouds.3 mph52%29.98 "HgN/A
7:50 PM64 °FPartly sunny.2 mph60%29.98 "HgN/A
7:20 PM64 °FPartly sunny.1 mph64%29.98 "HgN/A
6:50 PM64 °FPartly sunny.2 mph52%29.98 "HgN/A
6:20 PM66 °FPartly sunny.5 mph46%30.01 "HgN/A
5:50 PM68 °FPartly sunny.5 mph49%30.01 "HgN/A
5:20 PM68 °FPartly sunny.3 mph46%30.01 "HgN/A
4:50 PM68 °FScattered clouds.1 mph46%30.01 "HgN/A
4:20 PM64 °FPartly sunny.6 mph56%30.04 "HgN/A
3:50 PM64 °FPartly sunny.7 mph52%30.04 "HgN/A
3:20 PM64 °FPartly sunny.5 mph56%30.04 "HgN/A
2:50 PM64 °FPartly sunny.7 mph52%30.04 "HgN/A
2:20 PM63 °FPartly sunny.8 mph59%30.04 "HgN/A
1:50 PM63 °FPartly sunny.7 mph59%30.04 "HgN/A
1:20 PM61 °FScattered clouds.10 mph63%30.07 "HgN/A
12:50 PM64 °FScattered clouds.6 mph56%30.07 "HgN/A
12:20 PM61 °FPartly sunny.8 mph68%30.07 "HgN/A
11:50 AM61 °FPartly sunny.14 mph68%30.07 "HgN/A
11:20 AM63 °FScattered clouds.7 mph68%30.07 "HgN/A
10:50 AM61 °FBroken clouds.10 mph68%30.07 "HgN/A
10:20 AM61 °FScattered clouds.12 mph68%30.07 "HgN/A
9:50 AM59 °FScattered clouds.7 mph77%30.07 "HgN/A
9:20 AM59 °FScattered clouds.8 mph82%30.04 "HgN/A
8:50 AM59 °FBroken clouds.8 mph82%30.04 "HgN/A
8:20 AM57 °FBroken clouds.7 mph94%30.04 "HgN/A
7:50 AM57 °FBroken clouds.5 mph94%30.04 "HgN/A
7:20 AM55 °FBroken clouds.6 mph100%30.04 "HgN/A
6:50 AM55 °FBroken clouds.7 mph100%30.04 "HgN/A
6:20 AM55 °FBroken clouds.6 mph100%30.04 "HgN/A
5:50 AM55 °FPassing clouds.5 mph94%30.04 "HgN/A
5:20 AM55 °FPartly cloudy.6 mph94%30.04 "HgN/A
Weather by CustomWeather, © 2016

See weather overviewHow to use our weather pages